Overview Statistics Trail Chart Weather Telemetry Raw packets
 

This is the latest recevied weather packets stored in our database for station/object IU7URP-17. If no packets are shown the sender has not sent any weather packets the latest 10 day(s).

<< 19 20 21 22 23 24 25 >>
Time Temp. Humidity Pressure Rain* Wind** Luminosity Snow
1787962804 26.11° C 62% 1015.3 hPa - - - -
1787961600 26.67° C 61% 1015.5 hPa - - - -
1787960396 26.11° C 60% 1015.7 hPa - - - -
1787959192 26.11° C 58% 1015.8 hPa - - - -
1787957988 26.67° C 58% 1016 hPa - - - -
1787956784 26.67° C 59% 1016.2 hPa - - - -
1787955580 26.11° C 61% 1016.3 hPa - - - -
1787954376 26.11° C 62% 1016.3 hPa - - - -
1787953172 26.11° C 62% 1016.4 hPa - - - -
1787951967 26.11° C 61% 1016.4 hPa - - - -
1787950763 26.67° C 60% 1016.4 hPa - - - -
1787949559 27.22° C 60% 1016.3 hPa - - - -
1787948355 27.78° C 58% 1016.3 hPa - - - -
1787945947 28.33° C 54% 1016.4 hPa - - - -
1787944743 29.44° C 51% 1016.3 hPa - - - -
1787943539 30° C 48% 1016.1 hPa - - - -
1787942335 30.56° C 47% 1015.9 hPa - - - -
1787941131 31.67° C 45% 1015.8 hPa - - - -
1787939927 32.22° C 42% 1015.4 hPa - - - -
1787938723 32.78° C 36% 1015.1 hPa - - - -
1787937519 33.33° C 35% 1014.9 hPa - - - -
1787936315 33.89° C 33% 1014.9 hPa - - - -
1787935111 35° C 32% 1015 hPa - - - -
1787933907 36.11° C 30% 1014.9 hPa - - - -
1787932702 37.22° C 26% 1015.1 hPa - - - -

* Rain since midnight (hover to see other rain measurements)
** Current wind speed in m/s (hover to see current wind gust speed)